Weather History for EGVA - December, 2013

Change the Weather History Date:

Thursday, December 5, 2013

  Actual Average Record
Temperature  
Mean Temperature 40 °F -  
Max Temperature 52 °F 47 °F 55 °F (2006)
Min Temperature 28 °F 37 °F 25 °F (2010)
Degree Days  
Heating Degree Days 25    
Moisture  
Dew Point 39 °F    
Average Humidity 87    
Maximum Humidity 100    
Minimum Humidity 71    
Precipitation  
Precipitation 0.00 in - - ()
Sea Level Pressure  
Sea Level Pressure 30.20 in    
Wind  
Wind Speed 13 mph ()    
Max Wind Speed 36 mph    
Max Gust Speed 50 mph    
Visibility 6.2 miles    
Events      
Averages and records for this station are not official NWS values.
T = Trace of Precipitation, MM = Missing Value Source: Averaged Metar Reports

Daily Weather History Graph

Daily Weather History Graph

Search for Another Location

Airport or City:

Trip Planner

Search our weather history database for the weather conditions in past years. The results will help you decide how hot, cold, wet, or windy it might be!

Date:

Astronomy

Dec. 05, 2013 Rise Set
Actual Time 7:56 AM GMT 3:58 PM GMT
Civil Twilight 7:17 AM GMT 4:38 PM GMT
Nautical Twilight 6:34 AM GMT 5:21 PM GMT
Astronomical Twilight 5:53 AM GMT 6:01 PM GMT
Moon 9:56 AM GMT (12/5) 7:12 PM GMT (12/5)
Length of Visible Light 9h 21m
Length of Day
8h 01m
Waxing Crescent, 9% of the Moon is Illuminated
Dec 5
Waxing Crescent
Dec 9
First Quarter
Dec 17
Full
Dec 25
Last Quarter
Jan 1
New

Hourly Weather History & Observations

Time (GMT) Temp. Windchill Dew Point Humidity Pressure Visibility Wind Dir Wind Speed Gust Speed Precip Events Conditions
12:58 AM 28.0 °F 20.8 °F 27.9 °F 99% 30.48 in 6.2 mi WSW 6.9 mph - N/A   Clear
1:58 AM 29.8 °F 23.9 °F 29.5 °F 99% 30.45 in 6.2 mi WSW 5.8 mph - N/A   Clear
2:58 AM 30.0 °F 24.1 °F 29.8 °F 99% 30.45 in 6.2 mi SW 5.8 mph - N/A   Clear
3:58 AM 29.3 °F 23.2 °F 28.9 °F 99% 30.39 in 6.2 mi SW 5.8 mph - N/A   Clear
4:58 AM 34.9 °F 26.6 °F 34.7 °F 99% 30.36 in 6.2 mi WSW 11.5 mph - N/A   Clear
5:38 AM 33.8 °F 27.7 °F 33.8 °F 100% 30.31 in 6.2 mi SW 6.9 mph - N/A   Mostly Cloudy
5:58 AM 33.6 °F 26.8 °F 33.4 °F 99% 30.32 in 6.2 mi SW 8.1 mph - N/A   Overcast
6:48 AM 35.6 °F 29.2 °F 35.6 °F 100% 30.25 in 6.2 mi SSW 8.1 mph - N/A   Scattered Clouds
6:58 AM 36.0 °F 28.5 °F 35.6 °F 99% 30.27 in 6.2 mi SSW 10.4 mph - N/A   Partly Cloudy
7:58 AM 37.9 °F 30.0 °F 37.8 °F 99% 30.24 in 6.2 mi SW 12.7 mph - N/A   Clear
8:58 AM 43.9 °F 33.9 °F 42.3 °F 94% 30.19 in 6.2 mi WSW 28.8 mph 34.5 mph N/A   Clear
9:58 AM 46.2 °F 36.2 °F 43.7 °F 91% 30.14 in 6.2 mi WSW 35.7 mph 49.5 mph N/A   Clear
10:58 AM 48.0 °F - 45.1 °F 90% 30.14 in 6.2 mi West 33.4 mph 41.4 mph N/A   Clear
11:58 AM 49.8 °F - 45.9 °F 86% 30.09 in 6.2 mi West 35.7 mph 42.6 mph N/A   Clear
12:58 PM 49.3 °F - 45.1 °F 86% 30.04 in 6.2 mi WSW 26.5 mph 39.1 mph N/A   Partly Cloudy
1:24 PM 50.0 °F - 44.6 °F 82% 30.01 in 6.2 mi West 31.1 mph 46.0 mph N/A   Squalls
1:58 PM 51.1 °F - 45.5 °F 81% 30.01 in 6.2 mi West 23.0 mph 34.5 mph N/A   Clear
2:58 PM 52.2 °F - 45.5 °F 78% 30.05 in 6.2 mi West 19.6 mph 31.1 mph N/A   Scattered Clouds
3:20 PM 51.8 °F - 46.4 °F 82% 30.06 in 6.2 mi WNW 19.6 mph 31.1 mph N/A   Mostly Cloudy
3:35 PM 51.8 °F - 46.4 °F 82% 30.08 in 6.2 mi NW 23.0 mph 39.1 mph N/A   Light Drizzle
3:47 PM 50.0 °F - 46.4 °F 87% 30.10 in 6.2 mi NNW 10.4 mph 28.8 mph N/A   Mostly Cloudy
3:48 PM 50.0 °F - 46.4 °F 87% 30.10 in 6.2 mi NNW 12.7 mph 28.8 mph N/A   Scattered Clouds
3:58 PM 49.5 °F - 45.9 °F 87% 30.13 in 6.2 mi NW 16.1 mph 20.7 mph 0.00 in   Scattered Clouds
4:14 PM 48.2 °F - 42.8 °F 82% 30.12 in 6.2 mi NW 13.8 mph 26.5 mph N/A   Mostly Cloudy
4:17 PM 48.2 °F - 41.0 °F 76% 30.13 in 6.2 mi NW 17.3 mph 26.5 mph N/A   Scattered Clouds
4:58 PM 47.1 °F - 40.3 °F 77% 30.18 in 6.2 mi WNW 4.6 mph - N/A   Scattered Clouds
5:58 PM 45.7 °F 38.0 °F 36.7 °F 71% 30.19 in 6.2 mi NW 19.6 mph 25.3 mph N/A   Clear
6:58 PM 42.8 °F 38.0 °F 35.2 °F 75% 30.21 in 6.2 mi WNW 8.1 mph - N/A   Clear
7:58 PM 42.8 °F 37.0 °F 35.4 °F 75% 30.21 in 6.2 mi West 10.4 mph - N/A   Partly Cloudy
8:58 PM 43.9 °F 36.5 °F 35.8 °F 73% 30.23 in 6.2 mi West 16.1 mph - N/A   Clear
9:58 PM 43.3 °F 36.8 °F 35.2 °F 73% 30.25 in 6.2 mi WNW 12.7 mph - N/A   Clear
10:58 PM 39.4 °F 32.7 °F 34.3 °F 82% 30.26 in 6.2 mi WNW 10.4 mph - N/A   Partly Cloudy
11:58 PM 42.1 °F 36.6 °F 35.2 °F 77% 30.28 in 6.2 mi West 9.2 mph - N/A   Scattered Clouds